Regional Weather Roundup
Issued by NWS

Home | Current Version | Previous Version | Text Only | Print | Product List | Glossary Off
Versions: 1 2 3 4 5 6 7 8 9 10 11 12 13 14 15 16 17 18 19 20 21 22 23 24 25 26 27 28 29 30 31 32 33 34 35 36 37 38 39 40 41 42 43 44 45 46 47 48 49 50

000
ASUS43 KMPX 020610
RWRMN
WEATHER ROUNDUP FOR MINNESOTA
NATIONAL WEATHER SERVICE TWIN CITIES/CHANHASSEN MN
1200 AM CST MON MAR 02 2015


NOTE: "FAIR" INDICATES FEW OR NO CLOUDS BELOW 12,000 FEET WITH NO
SIGNIFICANT WEATHER AND/OR OBSTRUCTIONS TO VISIBILITY. N/A MEANS
CURRENT SKY AND/OR WEATHER CONDITIONS ARE NOT AVAILABLE.

MNZ060>063-068>070-020700-
   Twin Cities Metro

CITY           SKY/WX    TMP DP  RH WIND       PRES   REMARKS
TWIN CITIES    PTCLDY    19   9  65 NW13      30.40R WCI   6
6HR MIN TEMP:  19; 6HR MAX TEMP:  27; 6HR PCP: TRACE;

ST PAUL        CLOUDY    21  10  62 NW16      30.41R WCI   7
CRYSTAL        PTCLDY    20   9  62 NW13      30.40R WCI   7
BLAINE         CLEAR     19  10  68 NW13      30.39R WCI   7
LAKEVILLE      CLEAR     16   9  73 NW9       30.40R WCI   4
EDEN PRAIRIE   CLEAR     18   9  68 W7        30.40R WCI   9
6HR MIN TEMP:  18; 6HR MAX TEMP:  26;

SOUTH ST PAUL  MOCLDY    22  11  63 NW7       30.40R WCI  14
LAKE ELMO      CLOUDY    21  12  68 NW10      30.39R WCI  10
$$
MNZ001>005-007-008-013>017-022>024-027-028-020700-
   Northwest Minnesota

CITY           SKY/WX    TMP DP  RH WIND       PRES   REMARKS
BEMIDJI        CLEAR      6   3  88 SW7       30.31S WCI  -6
HALLOCK        CLEAR      3  -2  78 W12       30.33R WCI -13
ROSEAU         CLEAR     10   5  79 W8        30.29R WCI  -1
WARROAD        CLEAR      7   1  78 W8        30.28R WCI  -6
THIEF RVR FALL CLEAR      7   1  78 W9        30.33R WCI  -7
CROOKSTON      CLEAR      9   3  78 W7        30.38R WCI  -3
FOSSTON        CLOUDY     1   0  92 SW3       30.34R
DETROIT LAKES  PTCLDY    10   5  79 NW6       30.37R WCI   1
MOORHEAD       CLEAR      9   7  92 W6        30.40S WCI  -1
PARK RAPIDS    CLEAR      4   1  88 NW6       30.33R WCI  -7
MAHNOMEN       CLOUDY     1  -2  85 SW7       30.36R WCI -11
$$
MNZ006-009>011-018-025>026-020700-
   North Central Minnesota

CITY           SKY/WX    TMP DP  RH WIND       PRES   REMARKS
BAUDETTE       CLEAR      7   1  76 W7        30.26R WCI  -5
FLAG ISLAND    CLEAR      9   3  78 W8        30.26R WCI  -4
INTL FALLS     CLOUDY    10   3  73 W9        30.25R WCI  -3
6HR MIN TEMP:   9; 6HR MAX TEMP:  16; 6HR PCP: TRACE;

WASKISH        CLEAR      5   1  85 SW8       30.30R WCI  -8
BIG FORK       CLEAR      3   1  92 SW6       30.29R WCI  -8
LONGVILLE      CLEAR      7   3  85 W6        30.33R WCI  -3
GRAND RAPIDS   CLEAR      9   3  78 W7        30.30R WCI  -3
CRANE LAKE     CLOUDY    10   3  72 CALM      30.27R
ORR            CLOUDY     9   1  72 W6        30.24R WCI  -1
COOK           PTCLDY     9   3  78 W8        30.27R WCI  -4
WALKER         FAIR       7   4  88 W5        30.33R WCI  -2
$$
MNZ012-019>021-037-020700-
   Northeast Minnesota

CITY           SKY/WX    TMP DP  RH WIND       PRES   REMARKS
DULUTH         CLEAR     12   4  70 W9        30.27R WCI   0
6HR MIN TEMP:  12; 6HR MAX TEMP:  22;

ELY            PTCLDY     9   7  92 W9        30.22R WCI  -5
HIBBING        CLEAR     10   3  73 NW12      30.27R WCI  -5
EVELETH        CLEAR     12   5  73 W10       30.28R WCI  -1
DULUTH HARBOR  CLEAR     16   7  67 W13       30.35R WCI   2
SILVER BAY     CLEAR     16   7  67 W5        30.22R WCI   9
GRAND MARAIS     N/A     16   4  59 VRB7      30.22R WCI   6
G MARAIS ARPRT PTCLDY     9  -2  61 W15G21    30.11R WCI  -8
$$
MNZ029>031-032-039>041-046>048-054>057-064-020700-
   West Central Minnesota

CITY           SKY/WX    TMP DP  RH WIND       PRES   REMARKS
FERGUS FALLS   CLEAR      7   1  78 NW7       30.44S WCI  -5
MORRIS         CLEAR      9   3  78 W6        30.42R WCI  -1
ALEXANDRIA     CLEAR      8   5  87 W7        30.39R WCI  -3
ELBOW LAKE     FAIR       7   3  86 W5        30.41R WCI  -2
WADENA         CLEAR      5   1  85 SW6       30.37R WCI  -6
APPLETON       CLEAR      9   1  72 W7        30.44R WCI  -3
BENSON         CLEAR      9   5  85 NW6       30.42S WCI  -1
ORTONVILLE     CLEAR     12   5  73 NW8       30.43R WCI   1
MADISON        CLEAR      9   5  85 W8        30.45R WCI  -4
WILLMAR        FAIR      12   9  85 W6        30.42S WCI   3
$$
MNZ033>034-036-042>043-049>051-058-059-020700-
   Central Minnesota

CITY           SKY/WX    TMP DP  RH WIND       PRES   REMARKS
ST CLOUD       CLEAR     14   8  77 W10       30.39R WCI   1
6HR MIN TEMP:  13; 6HR MAX TEMP:  24; 6HR PCP: TRACE;

SAUK CENTRE    FAIR       9   6  87 NW5       30.39R WCI   1
PAYNESVILLE    CLEAR      8   6  88 SW6       30.41R WCI  -2
PINE RIVER     CLEAR      9   5  85 CALM      30.37R
BRAINERD       CLEAR      9   5  84 W6        30.36R WCI  -1
STAPLES        CLEAR      5   3  92 W5        30.37R WCI  -4
LONG PRAIRIE   FAIR      10   7  85 W6        30.38R WCI   1
LITTLE FALLS   CLEAR     10   5  79 CALM      30.39R
LITCHFIELD     CLEAR     16  12  86 W6        30.41R WCI   7
BUFFALO        CLEAR     18  10  73 W6        30.41R WCI   9
MAPLE LAKE     CLEAR     16  11  81 W7        30.41R WCI   6
$$
MNZ037-044-045-052-053-020700-
   East Central Minnesota

CITY           SKY/WX    TMP DP  RH WIND       PRES   REMARKS
PRINCETON      CLEAR     16   9  73 W7        30.39R WCI   6
MORA           CLEAR     14   5  67 NW7       30.38R WCI   4
CAMBRIDGE      CLEAR     18   7  62 W8        30.37R WCI   7
RUSH CITY      CLEAR     15   8  72 NW9       30.38R WCI   3
MOOSE LAKE     CLEAR     12   5  73 CALM      30.33R
HINCKLEY       FAIR      14   9  79 NW3       30.35R
CLOQUET        CLEAR     12   5  73 W8        30.30R WCI   1
MCGREGOR       CLEAR     12   7  79 W3        30.34R
$$
MNZ071>073-080-081-089-090-097-098-020700-
   Southwest Minnesota

CITY           SKY/WX    TMP DP  RH WIND       PRES   REMARKS
MONTEVIDEO     CLEAR     12   7  79 NW3       30.45R
GRANITE FALLS  CLEAR      9   6  87 W8        30.46R WCI  -3
CANBY          CLEAR     11   6  79 W6        30.45S WCI   2
MARSHALL       CLEAR     10   3  72 W10       30.45R WCI  -3
REDWOOD FALLS  CLEAR     15  10  80 NW10      30.44R WCI   2
OLIVIA         CLEAR     14  10  85 NW8       30.43R WCI   3
PIPESTONE      PTCLDY    12  10  92 N6        30.41R WCI   3
WINDOM         CLEAR     10   7  85 W7        30.42R WCI   0
WORTHINGTON    CLEAR     12   5  73 NW9       30.44R WCI   0
JACKSON        CLEAR     18  12  79 NW10      30.42R WCI   6
TRACY          CLEAR     16  11  80 NW7       30.44R WCI   6
SLAYTON        CLEAR     11   6  82 CALM      30.43R
$$
MNZ065>067-074>077-082>085-091>093-020700-
   South Central Minnesota

CITY           SKY/WX    TMP DP  RH WIND       PRES   REMARKS
MANKATO        CLEAR     18   9  68 NW13      30.41R WCI   4
NEW ULM        CLEAR     12   9  85 W9        30.43R WCI   0
ST JAMES       CLEAR     16  10  79 W9        30.44R WCI   4
FAIRMONT       CLEAR     18   9  68 W9        30.41R WCI   6
GLENCOE        CLEAR     17  13  85 W8        30.42R WCI   6
FARIBAULT      CLEAR     18  10  73 W8        30.40R WCI   7
OWATONNA       CLEAR     18  10  73 W10       30.39R WCI   6
WASECA         CLEAR     18  12  79 NW9       30.42R WCI   6
ALBERT LEA     CLEAR     19  12  73 NW8       30.39S WCI   9
$$
MNZ078>079-086>088-094>096-020700-
   Southeast Minnesota

CITY           SKY/WX    TMP DP  RH WIND       PRES   REMARKS
ROCHESTER      CLEAR     18  11  74 NW21      30.36R WCI   1
6HR MIN TEMP:  13; 6HR MAX TEMP:  19;

RED WING       CLOUDY    23  10  58 NW8G21    30.38R WCI  14
STANTON        CLEAR     19  11  71 NW9       30.39R WCI   7
DODGE CENTER   CLEAR     18  12  79 NW14      30.37R WCI   4
WINONA         CLEAR     23  16  74 W10G17    30.38R WCI  12
AUSTIN         CLEAR     18  12  79 NW14      30.38R WCI   4
PRESTON        CLEAR     17  12  80 NW17      30.36R WCI   2
$$
ABBREVIATIONS USED IN REMARKS
   TC - TEMPERATURES IN CELSIUS
  WCI - WIND CHILL INDEX
   HX - HEAT INDEX
  VSB - VISIBILITY
$$


USA.gov is the U.S. government's official web portal to all federal, state and local government web resources and services.